User: anonymous   Login
Location: Unspecified
(0.0000°N, 0.0000°E)
Time: 17:44:15
(UTC+01:00)
Language:

NOAA 12 - Orbit

View from above orbital plane
View from above orbital plane
View from above satellite
View from above satellite

Ground track
Ground track

The orbit data is extracted from the following two-line orbital elements,

1 21263U 91032A   15063.16082693  .00000121  00000-0  69242-4 0  9990
2 21263 098.6405 091.6688 0013467 196.3686 205.6993 14.25735885237606
Epoch (UTC): 04 March 2015 03:51:35
Eccentricity: 0.0013467
inclination: 98.6405°
perigee height: 796 km
apogee height: 815 km
right ascension of ascending node: 91.6688°
argument of perigee: 196.3686°
revolutions per day: 14.25735885
mean anomaly at epoch: 205.6993°
orbit number at epoch: 23760

The dashed part of the orbit path shows where the satellite is in the earth's shadow,  

DLR